Location: Helds Island Access
(38.5526°N, 91.5997°W)
Time: 16:32:15
(UTC-05:00)

Daily predictions for brighter satellites

Satellite Brightness Start Highest point End
(mag) Time Altitude Azimuth Time Altitude Azimuth Time Altitude Azimuth
CZ-3A R/B 3.9 20:12:56 10° WSW 20:16:04 13° SW 20:18:00 10° SSW
Cosmos 2263 Rocket 3.3 20:13:44 10° N 20:18:35 28° ENE 20:23:23 10° ESE
Uosat 12 SS-18 rocket 4.5 20:14:01 10° SSW 20:18:36 59° ESE 20:24:09 10° NE
MINOTAUR R/B 4.5 20:16:15 10° NNW 20:18:59 54° ENE 20:21:41 10° SSE
NOSS 2-3 (C) 4.1 20:16:29 10° S 20:20:50 43° ESE 20:25:44 10° NE
Cosmos 2322 Rocket 2.4 20:15:45 10° S 20:21:14 51° ESE 20:26:43 10° NNE
Cosmos 676 Rocket 4.1 20:15:58 10° NNW 20:21:20 85° ENE 20:26:40 10° SSE
GPS 2-05 Rocket1 3.2 20:19:53 10° W 20:23:13 49° S 20:26:28 10° ESE
Meteor 1-11 Rocket 4.2 20:17:53 10° SSE 20:23:20 42° E 20:28:41 10° NNE
Tiangong 1 1.8 20:21:09 10° WNW 20:23:48 38° N 20:26:26 10° E
Cosmos 1140 Rocket 3.6 20:20:05 10° NNW 20:25:18 64° ENE 20:30:30 10° SSE
Cosmos 614 Rocket 4.1 20:21:20 10° N 20:26:22 55° ENE 20:31:25 10° SSE
S3M 4.3 20:20:35 10° N 20:26:41 50° E 20:32:48 10° SSE
Cosmos 1553 Rocket 4.1 20:21:51 10° N 20:27:52 54° E 20:33:48 10° SSE
SJ-6B 3.6 20:25:17 10° S 20:29:16 57° W 20:33:20 10° NNW
Cosmos 1975 Rocket 3.8 20:26:03 10° NNW 20:30:26 58° W 20:34:46 10° S
Spot 2 Rocket 3.7 20:25:48 10° SSE 20:30:46 55° ENE 20:35:45 10° N
Resurs 01 Rocket 1.7 20:27:38 10° SSE 20:32:01 64° ENE 20:36:27 10° N
SL-16 R/B 2.2 20:27:47 10° S 20:33:22 65° ESE 20:38:59 10° NNE
Cosmos 2151 Rocket 3.5 20:34:19 10° S 20:38:40 71° E 20:43:03 10° NNE
EXPRESS MD2 4.1 20:37:41 10° W 20:39:57 36° NNW 20:43:28 10° NE
Cosmos 44 Rocket 3.9 20:35:27 10° NW 20:40:06 54° WSW 20:44:48 10° SSE
Cosmos 1954 Rocket 4.2 20:36:08 10° NNW 20:41:27 77° WSW 20:46:45 10° S
Helios 1A 4.3 20:41:24 13° ESE 20:44:05 24° ENE 20:47:28 10° NNE
DELTA 2 R/B (1) 4.2 20:40:06 10° W 20:45:28 47° SSW 20:50:09 13° SE
ATLAS 3B R/B 3.8 20:43:35 10° NNW 20:49:19 28° NE 20:53:56 14° E
Meteor 1-19 Rocket 4.3 20:46:43 10° N 20:52:38 82° E 20:58:24 10° S
Cosmos 2360 Rocket 2.7 20:48:51 10° S 20:53:57 36° ESE 20:59:03 10° NE
Cosmos 1536 Rocket 3.4 20:50:27 10° N 20:54:47 75° E 20:59:07 10° SSE
Cosmos 1980 Rocket 4.4 20:50:26 10° WSW 20:55:14 29° WNW 21:00:04 10° N
COSMOS 2428 4.1 20:55:48 16° ESE 20:56:03 16° E 20:59:24 10° ENE
Cosmos 1939 Rocket 3.0 20:53:53 14° SSE 20:57:08 51° ENE 21:00:57 10° N
Cosmos 1536 2.8 20:53:49 10° S 20:57:49 61° E 21:01:50 10° NNE
USA 267 3.8 20:52:29 10° SSE 20:58:52 55° SW 21:05:17 10° NW
Lacrosse 5 rocket 2.8 20:56:19 10° WNW 20:59:31 28° SW 21:02:51 10° S
Envisat 2.9 20:54:56 10° SSE 20:59:59 83° ENE 21:05:06 10° N
Cosmos 1741 Rocket 4.0 20:54:48 10° NNW 21:00:02 70° ENE 21:04:32 14° SSE
NOSS 2-3 (D) 3.9 20:55:59 10° SW 21:00:36 85° WNW 21:05:55 10° NNE
Meteor 1-5 Rocket 4.1 21:02:28 10° S 21:07:41 59° E 21:12:53 10° NNE
H-2A R/B 3.8 21:08:23 13° ENE 21:09:26 14° ENE 21:11:54 10° NNE
CZ-4B DEB 3.8 21:15:44 25° ENE 21:15:44 25° ENE 21:17:48 10° NNE
Meteor 2-4 Rocket 3.8 21:13:58 10° N 21:19:34 83° W 21:25:19 10° S
ATLAS 2AS CENTAUR R/B 3.1 21:19:10 10° SSW 21:26:49 84° WNW 21:35:00 10° NNE
USA 186 4.0 21:24:08 10° SSW 21:26:58 25° W 21:29:50 10° NW
Delta 2 Rocket 3.6 21:23:54 10° WSW 21:27:51 50° SSE 21:28:55 40° SE
Cosmos 1110 Rocket 3.8 21:23:52 10° S 21:29:00 74° ESE 21:34:11 10° NNE
Helios 1B rocket 2.3 21:27:11 10° NNE 21:31:19 74° ESE 21:33:57 21° S
BREEZE M DEB (TANK) 2.9 21:22:07 10° SW 21:31:58 65° SE 21:33:38 31° ENE
SPOT 5 4.0 21:33:36 26° ENE 21:34:00 26° ENE 21:37:53 10° NNE
Lacrosse 5 2.5 21:32:55 10° WSW 21:37:54 56° NW 21:42:54 10° NE
Cosmos 1331 Rocket 3.9 21:36:52 10° SSW 21:42:02 85° ESE 21:47:17 10° NNE
Centaur D AC-29 4.1 21:35:52 10° SW 21:42:33 15° S 21:43:39 15° S
SeaSat 1 3.7 21:42:55 10° NNE 21:47:34 43° WNW 21:52:12 10° SW
Atlas Centaur 2 3.6 21:42:02 10° W 21:49:16 35° SSW 21:51:30 29° SSE
SL-08 RB Rocket 4.4 21:49:38 36° ENE 21:49:38 36° ENE 21:53:42 10° N
ARGOS 3.3 21:49:54 45° ESE 21:50:58 52° ENE 21:56:10 10° N
Cosmos 1244 Rocket 4.3 21:49:27 28° S 21:52:47 71° E 21:58:53 10° NNE
Okean 1 Rocket 4.2 21:49:58 10° SSW 21:54:04 42° W 21:58:15 10° N
YAOGAN 6 4.0 21:56:40 27° SW 21:57:46 33° W 22:00:59 10° NNW
Cosmos 1025 Rocket 3.3 21:54:58 10° NNW 21:59:12 64° W 22:00:09 48° SSW
Tiangong 1 3.2 21:56:34 10° WNW 21:57:45 22° W 21:57:45 22° W
Cosmos 1607 4.3 21:53:16 10° NW 21:59:38 61° WSW 22:02:27 33° S
Okean 2 3.4 21:56:27 10° NNW 22:00:32 72° W 22:00:54 66° SW
Cosmos 2263 Rocket 3.2 21:57:19 10° NW 22:02:37 41° WSW 22:05:41 22° SSW
Cosmos 2278 Rocket 3.9 22:02:23 10° N 22:06:16 18° NE 22:06:39 18° ENE
Okean 1-7 Rocket 4.2 22:04:57 10° NNW 22:09:21 53° W 22:10:26 42° SW
Cosmos 1844 Rocket 3.0 22:04:20 10° N 22:09:49 47° ENE 22:10:09 47° ENE
Cosmos 1818 3.4 22:10:06 69° ESE 22:10:09 69° ESE 22:15:35 10° NE
SL-08 R/B 4.5 22:09:03 53° SE 22:10:13 63° E 22:16:28 10° NNE
SPOT 1/Viking Rocket 3.9 22:10:41 48° ENE 22:10:41 48° ENE 22:15:35 10° N
Cosmos 2237 4.2 22:05:53 10° SSW 22:11:33 78° WNW 22:17:17 10° NNE
Cosmos 1515 4.3 22:09:32 10° NNW 22:12:54 53° WNW 22:12:54 53° WNW
Cosmos 1975 3.7 22:16:24 43° N 22:16:24 43° N 22:19:10 10° N
Terra 3.5 22:16:55 22° NE 22:16:55 22° NE 22:19:35 10° NNE
MetOp-B 4.2 22:19:30 57° SSW 22:20:27 71° WSW 22:25:49 10° NNW
BREEZE-M DEB 4.3 22:15:52 10° NW 22:22:08 31° N 22:22:33 31° NNE
Cosmos 2219 Rocket 3.0 22:24:26 37° NE 22:24:26 37° NE 22:28:03 10° NNE
NOSS 3-2 (A) 4.3 22:16:21 10° NNW 22:23:45 55° NE 22:25:38 46° E
USA 238 DEB 3.7 22:18:48 10° NNW 22:25:56 88° WSW 22:27:24 61° SSE
USA 238 3.7 22:18:54 10° NNW 22:26:02 88° WSW 22:27:30 61° SSE
Cosmos 1500 4.5 22:27:02 40° WNW 22:27:02 40° WNW 22:30:23 10° N
Meteor 1-12 Rocket 4.1 22:26:33 70° SSW 22:27:14 86° W 22:32:55 10° N
ERS-1 Rocket 3.6 22:26:41 43° SW 22:27:35 48° W 22:32:27 10° NNW
USA 245 3.9 22:28:30 74° WNW 22:28:30 74° WNW 22:32:35 10° NNW
Cosmos 2360 Rocket 4.0 22:33:03 10° WSW 22:37:57 30° WNW 22:42:52 10° N
COSMOS 2428 3.0 22:37:40 40° SW 22:39:41 65° WNW 22:45:24 10° NNE
ATLAS 3B R/B 2.7 22:33:52 10° NW 22:40:24 60° WSW 22:41:11 56° SSW
Cosmos 1745 Rocket 3.8 22:45:48 81° WSW 22:46:02 83° W 22:52:13 10° N
H-2A R/B 2.4 22:49:01 59° NW 22:49:01 59° NW 22:53:17 10° NNW
Cosmos 1844 3.9 22:42:47 10° NNW 22:47:46 66° N 22:47:46 66° N
Cosmos 2333 Rocket 3.1 22:55:01 39° NNE 22:55:01 39° NNE 22:58:28 10° NNE
NOSS 3-2 (C) 4.0 22:55:21 10° NNW 23:02:58 71° NE 23:03:28 69° E
FALCON 9 R/B 4.5 23:06:25 50° ESE 23:06:25 50° ESE 23:33:02 10° ENE
Cosmos 2237 Rocket 3.7 23:12:24 27° NNE 23:12:24 27° NNE 23:14:53 10° NNE
NOSS 3-4 (A) 4.0 23:28:47 56° NW 23:28:47 56° NW 23:34:47 10° NNE
NOSS 3-4 (C) 4.0 23:28:58 57° NW 23:28:58 57° NW 23:34:54 10° NNE
CENTAUR R/B 3.6 23:22:29 10° NNW 23:30:04 47° NE 23:30:29 47° ENE
Cosmos 2278 Rocket 3.6 23:45:13 10° NNW 23:48:29 35° NW 23:48:29 35° NW
Terra 4.2 23:55:49 20° NW 23:55:49 20° NW 23:57:33 10° NNW
